Theta_e
341 342 344 345 347 347 343 341 342 342 345 345 345 344 346 345 345 346 347 346 345 347 345 344 346 348 345 345 344 343 341 340 339 336 336 336 334 333 336 335 335 335 334 332 331 326 323 318 318 322 323 324 323 321 319 317 316 316 317 316 314 314 315
343 343 344 345 344 346 345 342 342 343 344 346 345 345 345 345 345 345 346 346 346 346 345 345 346 346 346 344 343 343 341 340 340 339 338 335 336 334 334 334 333 331 330 330 330 330 324 322 320 318 318 322 323 321 322 320 319 317 316 316 314 315 316
343 343 344 343 344 346 344 344 344 343 343 344 345 344 344 345 345 346 345 344 346 346 344 345 346 346 346 345 344 343 342 340 338 339 338 338 337 337 335 333 328 328 327 327 327 325 326 326 320 318 319 317 315 319 322 319 319 317 317 317 315 314 315
344 344 343 343 342 344 343 344 344 344 344 343 345 345 344 345 347 347 345 344 346 346 345 344 345 344 344 346 344 343 341 339 341 341 339 338 337 335 334 332 331 328 326 325 325 325 324 322 321 321 322 320 318 319 320 320 320 318 316 317 314 314 316
346 344 344 343 342 343 345 343 344 344 344 344 345 343 345 345 346 345 347 345 345 346 345 345 345 344 345 344 343 342 342 341 341 340 338 337 336 338 335 333 332 332 330 328 327 327 326 325 325 324 322 322 321 321 320 321 319 318 316 315 315 315 314
346 344 344 345 345 344 344 344 344 342 342 342 342 342 344 345 344 345 345 345 345 345 346 345 345 344 343 343 341 341 342 340 339 340 340 337 337 335 333 334 334 333 331 331 331 329 330 329 327 322 323 323 319 319 318 318 316 317 316 315 315 314 314
346 346 345 344 346 345 345 345 344 343 343 342 343 342 344 344 344 345 346 347 347 346 346 346 345 343 343 341 342 341 340 340 341 339 339 337 337 336 336 334 333 331 332 334 332 331 329 328 325 324 323 322 322 319 318 316 317 313 314 315 315 314 314
347 346 346 346 347 346 345 345 345 345 343 343 342 344 345 344 345 345 346 346 346 346 345 346 344 343 342 340 340 340 338 339 339 337 337 337 335 336 336 334 334 333 333 333 332 332 330 329 328 327 323 319 318 318 317 317 315 314 312 313 314 313 314
349 348 347 347 347 348 347 345 345 346 345 345 345 344 345 344 344 344 345 345 347 346 345 345 345 342 341 340 339 339 338 338 338 336 336 336 336 336 335 336 334 332 334 333 333 332 331 331 329 328 326 322 317 314 316 314 313 311 313 311 312 313 313
349 348 347 348 349 349 349 347 345 345 347 346 345 346 346 345 345 344 344 345 346 346 345 344 343 342 341 341 338 337 336 337 336 334 334 334 335 335 335 334 334 333 333 334 332 331 331 331 330 328 325 322 321 316 312 312 313 311 311 311 308 310 312
349 349 349 348 348 347 347 347 346 345 346 345 345 345 346 344 344 343 344 345 346 345 344 343 342 342 341 340 339 338 336 337 335 335 334 333 334 334 334 333 333 332 332 332 331 333 332 330 328 325 324 323 323 318 315 311 312 314 312 312 311 309 310
350 349 349 349 349 346 346 345 345 346 347 346 345 345 344 343 343 343 344 344 345 344 343 342 342 342 340 338 337 336 336 336 334 332 333 333 333 332 332 331 331 330 331 331 331 331 330 328 327 326 324 323 323 321 317 314 309 314 317 311 311 313 310
349 349 350 349 348 346 346 345 345 345 347 345 344 344 343 342 343 342 342 343 343 343 341 341 341 339 339 338 337 334 335 334 331 331 332 332 330 330 330 328 328 328 329 328 328 328 327 326 326 323 321 320 319 320 319 316 313 313 317 315 314 313 310
349 349 349 349 348 347 347 346 344 345 346 344 344 344 343 342 342 341 341 341 341 341 341 341 341 339 339 336 336 334 334 332 331 330 331 330 330 330 329 328 327 327 328 326 326 325 322 322 322 320 319 317 316 318 319 317 312 312 316 318 315 312 311
349 349 349 349 349 347 347 346 346 345 345 344 344 342 343 342 342 341 341 338 339 341 341 341 340 339 336 335 335 335 334 332 331 330 330 329 328 328 328 327 326 326 326 323 323 321 320 319 318 316 316 316 315 316 319 314 309 310 312 314 312 310 311
348 349 349 349 349 347 347 348 346 345 344 344 344 343 343 343 342 342 340 339 339 340 340 339 339 337 336 334 333 333 333 332 331 330 329 328 326 326 325 325 324 324 324 322 321 321 319 317 316 314 313 313 314 313 314 313 311 310 313 311 313 309 309
348 347 348 348 348 349 348 347 346 345 344 344 343 344 344 343 341 340 339 338 338 338 338 339 338 336 335 334 333 332 332 331 330 329 327 326 325 324 323 323 323 323 322 320 319 317 316 315 313 311 312 312 312 313 315 315 315 316 312 309 310 307 309
347 347 348 348 349 349 349 347 346 344 344 344 344 344 344 343 341 341 340 338 337 337 338 338 336 335 335 335 334 333 331 329 329 329 328 326 326 323 323 322 322 322 320 319 319 314 315 314 312 312 312 312 312 315 316 316 315 314 312 310 309 308 310
346 347 347 348 348 349 349 347 345 345 344 343 344 344 343 341 341 340 340 339 337 337 338 338 336 335 334 335 334 332 331 329 329 329 327 326 324 323 322 321 321 321 319 318 316 315 315 314 312 312 311 310 311 317 316 313 312 310 310 310 310 307 309
346 346 347 347 349 349 348 348 346 344 343 344 344 344 343 342 342 340 340 340 338 337 337 337 337 336 335 335 333 331 329 329 329 328 327 325 323 322 321 321 321 320 318 317 316 315 314 314 313 312 311 311 314 313 310 308 308 309 309 309 308 308 307
346 346 347 347 347 349 348 348 346 344 344 344 344 344 342 341 342 341 341 340 339 338 338 337 337 337 335 333 331 329 328 328 327 326 326 324 322 321 320 320 320 319 318 317 317 315 316 313 313 312 311 313 313 309 306 308 308 307 306 308 307 306 306
346 346 345 345 346 346 347 347 346 344 344 344 344 343 343 342 342 341 341 340 338 338 338 338 337 335 334 331 329 327 327 326 326 325 323 322 321 320 319 320 320 319 318 319 316 315 315 314 313 311 313 313 311 307 307 308 307 306 306 307 306 307 306
345 345 344 344 345 346 347 346 345 344 343 343 343 343 342 342 341 341 340 339 339 338 337 337 328 319 319 329 329 327 326 326 327 326 322 321 320 318 318 318 319 319 316 312 308 304 303 305 309 317 313 312 309 307 307 307 306 306 306 305 304 305 305
344 343 343 343 344 345 345 345 345 343 343 342 342 342 342 341 341 341 340 338 338 338 337 335 310 307 308 312 325 328 326 326 327 326 321 320 318 317 318 317 319 316 314 311 309 301 301 301 300 299 300 305 312 317 309 308 307 307 305 305 305 306 305
343 343 343 342 342 343 345 344 343 343 342 341 342 343 342 341 340 341 340 339 338 337 338 313 304 305 305 306 314 327 327 326 326 323 321 319 318 317 317 317 317 315 314 313 312 310 306 300 297 297 297 297 295 294 297 312 312 308 307 305 305 306 306
343 342 342 342 342 343 343 344 343 342 341 342 342 341 341 341 340 340 340 338 337 336 335 304 304 303 303 304 306 318 326 326 324 323 321 318 317 317 316 316 315 314 313 313 311 310 308 307 301 298 299 299 299 297 293 292 294 312 311 308 307 307 307
342 342 342 341 341 341 342 342 342 342 341 340 341 340 341 340 340 339 339 338 337 335 332 305 302 302 302 302 303 311 326 325 324 323 320 318 318 317 316 315 315 313 313 311 310 308 308 307 306 306 306 307 309 307 296 296 297 294 303 313 311 309 310
341 341 341 341 341 340 341 341 342 341 340 339 339 339 338 339 339 338 339 338 336 334 330 302 301 301 301 301 301 308 328 325 324 323 321 319 318 317 316 316 316 313 312 310 310 309 309 308 307 307 306 305 305 307 308 309 310 310 310 312 314 312 312
340 341 341 340 340 339 340 341 341 340 339 339 340 339 339 338 338 338 338 337 335 333 323 299 300 300 300 300 300 321 326 327 325 322 320 318 317 316 316 316 315 312 312 310 307 300 305 309 308 307 305 305 304 305 306 310 302 304 313 316 316 313 310
340 341 340 339 339 339 339 340 341 341 339 338 338 338 337 337 338 337 336 335 335 333 320 302 299 299 299 299 305 321 324 324 322 320 319 318 316 316 316 316 315 313 313 311 304 297 298 304 308 306 304 304 304 306 306 313 297 295 294 293 292 292 292
340 340 339 338 338 339 340 341 340 339 337 336 336 336 337 336 337 336 336 335 335 333 322 306 298 298 299 299 309 320 322 324 320 319 317 317 316 316 316 313 315 314 314 314 297 296 296 306 308 306 304 304 304 305 307 310 309 309 293 293 294 293 293
340 340 338 338 340 338 339 339 339 338 338 338 337 337 334 335 335 335 335 336 325 330 323 307 297 298 298 299 310 320 320 319 318 317 316 315 316 316 315 314 312 312 315 308 295 296 296 304 309 306 307 305 304 305 307 311 309 307 308 307 307 310 306
340 340 339 339 339 339 340 339 338 337 337 336 336 335 333 334 334 334 335 334 333 332 323 312 303 296 298 298 304 319 320 318 316 315 316 314 314 314 315 314 311 300 298 295 295 294 295 299 308 308 307 306 305 305 308 309 311 310 309 306 306 306 305
338 339 339 339 340 339 339 338 337 336 336 336 335 333 333 333 334 334 334 334 331 332 325 314 305 296 297 298 301 309 318 318 317 315 315 313 313 312 312 312 312 297 294 294 294 294 295 296 300 309 309 307 308 310 305 307 309 309 309 307 306 306 305
339 339 340 340 340 338 337 336 337 337 336 336 334 332 331 330 332 333 333 332 331 331 323 310 309 297 296 298 300 304 316 318 316 315 314 313 312 312 311 312 311 298 293 293 294 294 294 295 294 309 313 296 293 295 307 306 309 309 307 307 305 304 305
340 341 341 340 338 336 335 335 336 336 335 335 333 331 328 329 330 330 332 331 331 331 327 313 302 302 296 296 298 301 304 311 302 315 314 312 312 310 313 314 309 295 293 293 293 293 294 294 295 303 290 292 294 294 300 306 308 308 305 304 305 305 304
341 341 339 337 335 335 335 336 336 335 335 332 330 329 327 327 327 327 327 327 328 328 323 316 302 299 299 295 297 299 298 300 301 313 315 312 311 311 313 313 306 293 292 292 292 292 293 293 300 291 290 291 292 297 304 304 304 306 304 301 301 302 304
Wind_Speed
12 11 12 11 10 10 12 13 12 11 13 13 12 12 12 11 10 10 10 10 9 9 8 8 7 7 7 8 8 8 7 7 7 4 7 6 7 6 7 7 6 6 5 5 7 6 4 4 7 6 7 7 8 7 7 8 8 7 7 6 6 7 6
13 11 11 11 11 11 13 12 12 12 12 13 12 12 12 12 11 10 11 11 10 9 8 8 8 8 9 8 8 7 7 6 5 5 5 6 7 6 7 6 6 6 7 7 7 7 6 6 7 8 7 7 6 7 7 7 7 6 8 7 7 7 6
13 12 12 12 12 12 13 11 11 11 12 11 12 14 14 13 13 11 11 12 11 9 8 9 9 9 9 9 9 9 8 7 6 6 6 5 5 5 6 6 7 7 6 7 7 7 7 7 8 5 9 10 10 9 9 9 8 7 7 7 7 8 7
15 14 13 14 13 13 14 14 12 11 10 11 11 11 14 12 13 12 10 11 10 9 9 9 8 9 9 9 8 9 9 9 6 6 7 7 6 7 8 7 7 7 7 7 7 7 7 6 7 7 7 10 11 10 10 9 8 8 7 7 8 8 6
15 13 15 15 16 16 14 14 13 12 12 11 10 10 11 13 12 12 11 11 11 10 10 8 8 9 8 8 8 8 7 8 8 6 7 8 9 4 7 7 7 7 7 7 7 7 7 7 6 6 5 6 9 8 10 10 9 7 9 8 8 8 8
15 16 16 14 14 14 13 13 14 14 13 12 13 13 13 14 13 12 11 10 10 10 10 9 9 10 9 8 9 9 8 9 8 9 5 8 8 9 10 9 7 8 8 7 7 7 6 6 7 7 7 8 8 9 14 12 6 7 8 9 8 8 8
14 14 14 14 14 13 14 15 15 14 13 14 13 14 13 14 13 13 12 11 10 10 10 10 10 10 9 9 8 8 8 7 7 8 9 10 10 10 7 7 8 9 7 6 7 7 7 7 7 7 7 7 6 4 4 2 5 7 8 8 8 8 7
14 14 14 13 14 14 13 14 14 14 14 13 14 13 14 14 14 13 13 12 11 11 11 10 9 10 10 10 9 9 9 8 10 10 9 9 8 9 10 8 7 7 5 6 6 7 7 7 7 6 7 8 5 3 9 4 7 10 7 8 8 8 7
13 14 13 12 13 15 14 15 15 14 14 14 12 13 14 14 14 15 14 12 12 12 11 11 11 10 10 10 9 9 9 8 7 9 7 7 8 9 8 7 7 7 6 7 7 6 7 6 6 7 7 8 8 8 7 7 6 8 10 7 7 7 6
16 17 15 15 15 14 14 13 14 15 14 13 13 13 14 14 13 14 14 13 13 12 12 11 11 10 10 10 10 10 10 8 7 8 8 8 9 8 7 9 8 8 7 7 7 6 7 7 8 7 8 9 8 9 6 8 8 7 9 9 6 7 7
16 16 15 16 16 14 14 15 14 13 15 14 13 12 14 15 14 15 14 13 13 12 12 12 11 11 11 9 10 10 9 8 7 6 7 10 10 9 9 9 9 9 9 9 9 7 7 8 10 11 7 6 6 7 7 6 5 7 5 8 6 5 8
16 16 15 16 13 15 17 17 15 13 13 14 14 14 15 15 14 14 14 14 12 13 13 13 12 11 12 10 10 8 8 8 8 9 9 9 9 10 10 11 11 10 9 8 8 8 9 7 4 4 6 6 6 6 6 6 6 4 5 7 6 4 8
17 17 17 17 16 16 17 18 16 15 14 14 16 17 16 16 16 16 15 14 13 13 13 12 13 13 12 10 9 9 8 10 10 10 10 9 9 10 11 12 11 9 8 8 7 4 5 6 7 7 7 7 7 6 5 6 6 0 2 4 6 4 6
19 18 19 19 17 18 15 15 16 15 14 16 16 16 17 17 17 17 16 15 16 13 13 12 11 11 11 11 10 11 11 11 11 11 10 11 10 10 10 10 11 11 8 8 8 7 7 8 8 7 6 6 7 6 5 6 6 4 3 3 3 4 4
16 17 18 19 17 18 17 15 13 14 16 18 17 17 17 15 16 17 16 17 16 15 15 14 13 11 11 12 10 9 12 12 13 11 11 11 11 9 9 11 11 11 9 9 8 8 8 7 7 7 7 6 6 6 6 7 7 5 7 5 3 2 4
17 18 19 18 19 19 17 15 15 15 15 16 17 17 17 17 18 19 18 17 17 15 15 14 12 13 12 14 13 12 13 13 13 12 11 11 11 10 10 10 10 9 7 9 8 7 7 7 6 7 7 7 6 6 6 7 6 7 8 6 5 7 7
18 18 19 18 20 19 17 15 15 15 16 16 17 15 17 19 18 18 18 17 17 15 15 14 14 13 15 15 15 14 12 11 11 11 10 10 10 10 10 10 10 9 9 9 8 7 6 6 6 6 7 5 6 5 5 5 5 2 7 5 7 7 7
18 18 18 18 20 19 18 16 15 17 17 17 17 17 16 17 18 18 17 19 19 16 15 15 15 13 13 13 14 14 12 11 10 10 10 10 10 10 10 10 10 10 9 9 8 8 7 8 6 6 6 5 5 5 4 4 3 4 4 5 6 5 5
19 19 20 19 20 18 17 16 16 16 18 19 18 17 18 17 17 19 19 19 19 18 16 15 16 16 16 15 14 14 11 11 10 10 10 10 10 10 10 11 10 10 10 9 9 8 8 9 7 6 7 6 6 6 4 4 4 4 5 5 5 5 4
18 19 18 19 17 17 18 16 16 18 16 17 18 18 17 18 15 18 19 19 19 19 17 15 16 16 17 16 15 13 11 10 11 10 10 10 10 10 10 10 10 10 10 10 9 9 8 9 7 7 7 6 6 7 6 5 6 7 6 6 5 5 5
19 19 17 18 18 16 18 18 18 17 15 16 18 19 19 18 14 16 18 18 18 16 15 14 16 16 16 16 13 12 11 10 10 10 10 10 10 10 11 10 10 10 10 10 9 9 9 9 7 7 6 6 6 6 6 6 6 6 6 6 6 6 6
16 17 17 18 19 18 17 16 16 15 14 15 14 18 18 17 16 18 19 19 19 17 16 15 15 15 16 15 13 12 12 11 10 10 10 11 10 11 10 10 10 10 10 9 11 9 9 8 8 8 7 7 7 7 6 6 6 6 6 6 6 5 5
17 17 18 18 19 20 18 16 15 15 16 17 17 17 17 15 16 17 19 19 18 16 14 14 13 18 16 13 13 11 10 10 11 11 10 11 11 11 11 10 9 11 9 10 10 10 10 9 8 3 7 8 8 7 7 7 7 7 6 6 6 6 6
18 19 19 19 20 21 20 15 16 18 16 16 17 17 16 16 14 17 19 20 20 17 14 11 18 19 17 16 14 12 12 11 12 12 11 11 11 11 11 11 8 10 11 10 10 11 9 8 8 8 10 9 6 2 7 8 6 7 7 6 6 5 5
19 19 19 20 20 20 17 17 16 16 15 17 16 17 18 16 14 15 16 19 19 15 12 15 22 20 18 18 14 12 11 11 11 11 11 11 10 11 11 11 9 9 9 11 10 9 8 8 8 8 9 9 9 9 9 3 4 6 6 5 5 5 5
20 19 19 20 19 19 19 17 19 17 17 15 15 17 18 15 14 17 16 19 17 15 11 18 21 22 19 18 16 14 11 11 11 11 11 12 12 11 11 10 9 9 9 12 11 11 10 7 7 7 7 7 8 8 7 8 8 5 2 5 4 4 5
20 20 20 19 20 20 20 21 19 16 14 12 12 15 19 17 14 15 17 18 16 14 12 19 22 22 21 19 18 14 12 12 10 12 12 12 11 11 11 10 10 10 9 11 10 12 11 10 8 6 5 5 5 5 5 5 3 2 3 2 3 4 4
20 20 20 20 19 21 20 20 18 15 12 14 15 15 17 16 13 14 16 18 14 15 11 23 22 22 21 20 19 14 11 11 10 11 11 11 11 11 11 11 10 11 11 12 10 13 11 11 10 8 8 7 7 7 5 5 4 3 2 2 2 3 1
20 19 20 20 20 21 22 20 19 18 15 14 15 15 11 13 14 15 15 18 14 15 12 24 23 22 22 20 20 10 10 12 12 11 11 11 11 11 11 11 11 11 12 13 11 14 11 11 10 9 9 7 7 6 7 3 3 4 5 2 4 6 6
20 20 20 20 21 22 21 22 19 15 13 11 14 14 13 12 13 13 15 18 16 14 13 21 24 23 23 22 16 10 10 9 10 11 11 11 11 11 11 12 11 11 12 12 13 14 12 12 10 10 8 8 8 7 7 5 6 7 8 10 8 8 7
20 20 20 21 21 20 20 18 20 16 16 17 14 13 12 13 12 13 16 20 17 14 12 18 24 23 23 23 19 13 11 12 11 11 11 11 10 10 12 14 13 11 12 11 17 15 14 12 10 10 10 10 9 8 8 7 5 4 4 5 6 5 3
20 20 20 19 18 20 18 19 16 14 15 14 13 12 12 12 13 12 15 17 15 13 12 17 23 23 23 23 18 11 12 11 12 11 11 11 11 10 10 10 12 11 11 13 20 15 14 12 10 10 9 9 10 10 8 9 8 8 7 7 6 5 5
18 18 19 17 17 19 15 13 11 13 13 14 12 12 12 12 14 16 16 16 11 11 12 13 18 23 23 23 21 14 11 11 11 12 11 11 11 10 10 10 10 3 12 20 18 17 14 13 9 9 9 9 9 9 8 8 8 8 8 8 7 7 8
19 18 19 18 15 16 14 11 12 14 14 12 12 13 14 16 16 15 14 15 12 13 10 13 16 23 23 24 22 17 12 12 12 12 11 11 11 11 10 11 9 11 17 18 17 17 15 14 7 6 8 7 7 6 8 7 7 7 7 8 8 7 7
16 15 17 15 13 12 10 13 13 15 14 13 11 15 13 12 11 13 12 14 13 14 13 18 14 20 23 24 23 19 12 12 12 12 12 11 11 10 10 10 8 12 17 16 16 16 15 14 9 4 6 6 9 10 7 7 7 8 6 6 7 7 7
13 12 12 15 15 12 12 14 14 14 14 13 12 12 13 11 13 13 12 11 12 14 12 14 20 17 20 22 24 19 17 13 13 11 11 11 11 11 9 9 10 18 18 18 16 16 15 14 12 3 7 10 8 8 3 6 6 7 7 7 7 7 7
13 14 13 13 13 13 15 14 14 11 11 10 10 11 11 10 8 8 9 9 9 12 9 10 17 22 20 23 22 22 14 13 16 11 9 9 10 10 11 10 12 20 18 17 17 16 16 14 9 10 5 8 10 6 7 6 5 5 6 7 8 8 8
Wind_Direction
202 193 185 185 190 190 194 196 192 194 196 195 195 201 200 198 207 202 202 209 213 199 195 200 204 201 205 201 202 206 207 207 203 209 224 201 205 203 211 217 225 232 240 250 281 284 270 218 195 208 196 207 194 215 225 225 215 203 182 207 206 194 207
196 199 188 184 189 189 199 197 190 194 195 199 198 202 203 201 205 206 205 207 211 208 194 201 201 199 204 201 197 198 203 205 198 220 232 211 206 217 193 215 221 227 228 232 243 242 253 252 243 186 191 186 215 205 222 238 232 210 184 201 234 218 197
191 192 189 186 190 191 198 186 186 197 199 199 205 205 204 203 205 205 206 209 206 209 201 204 197 199 201 202 201 201 202 205 198 209 221 223 216 224 222 206 218 220 233 235 224 234 236 249 267 214 183 191 203 208 200 210 226 221 182 197 219 232 204
191 191 186 186 189 191 198 191 190 197 200 196 203 208 206 202 207 207 209 208 207 206 207 205 200 200 200 203 198 199 208 204 197 216 214 224 226 225 219 216 215 215 217 216 224 211 231 233 233 242 227 198 212 203 189 205 207 201 197 198 211 221 220
191 195 193 187 187 190 194 193 193 198 200 198 197 207 206 203 207 208 208 211 208 205 204 208 200 201 194 200 194 199 207 205 204 210 212 221 218 225 241 226 220 223 216 223 224 235 226 236 242 250 257 229 220 215 176 180 189 212 206 215 204 213 222
197 200 204 196 187 188 186 188 191 197 196 198 199 202 204 203 205 207 205 208 210 203 204 204 203 204 193 196 199 195 198 208 206 210 209 233 225 215 218 217 221 221 225 220 237 251 233 241 246 250 241 243 219 211 166 162 161 214 217 213 206 217 207
197 201 204 203 195 191 189 189 193 194 194 198 195 201 198 203 206 204 205 206 208 202 202 204 206 204 197 201 197 185 202 210 201 215 222 222 225 226 225 224 222 221 225 223 226 236 239 233 236 238 248 255 294 309 106 106 192 216 207 216 199 219 200
195 201 207 205 200 197 189 191 193 191 196 195 201 201 200 203 203 203 203 204 203 206 201 202 206 208 201 201 206 200 200 200 214 216 222 224 226 220 221 224 228 228 218 229 233 232 236 242 242 238 242 258 225 204 274 194 214 213 211 198 197 211 199
197 202 205 207 205 205 197 191 195 194 195 192 196 199 202 203 200 203 201 202 200 203 201 201 203 204 200 204 207 202 206 207 208 212 219 221 228 229 224 223 234 232 224 226 231 228 237 239 238 242 254 253 260 226 206 249 230 214 202 198 188 204 193
198 202 203 205 206 201 204 195 194 196 192 193 192 197 199 201 202 203 200 198 200 200 202 202 202 199 194 200 207 207 210 208 213 216 209 212 213 219 222 221 224 229 227 219 221 229 223 228 236 240 237 241 246 262 251 230 226 239 193 198 181 190 197
199 203 204 208 206 203 204 203 200 192 193 197 195 195 196 199 200 199 201 199 200 198 202 202 201 198 197 197 204 209 204 207 207 214 218 216 207 194 207 216 217 223 226 213 205 211 227 215 224 239 253 263 247 241 248 256 244 191 214 169 195 195 175
200 207 208 210 206 204 205 205 202 194 190 193 195 198 196 194 197 198 199 199 200 200 200 201 200 198 198 198 201 209 200 200 211 216 219 224 227 211 203 213 212 214 227 241 241 193 227 256 265 265 233 239 243 237 251 258 268 175 193 167 201 220 156
198 206 208 209 208 204 204 206 204 197 187 196 199 200 197 194 193 197 197 197 199 199 198 194 200 201 196 196 196 203 198 202 207 215 218 214 222 227 224 223 231 237 237 227 234 231 217 210 214 221 224 223 234 239 233 255 253 144 156 158 192 156 141
199 204 208 208 208 206 206 204 205 201 191 201 202 198 195 195 195 197 195 196 198 195 192 193 197 200 190 200 200 204 206 202 209 214 217 214 216 217 220 223 222 220 212 196 200 200 201 201 203 217 227 217 224 214 221 229 237 185 123 100 140 161 138
199 203 208 209 208 209 205 203 202 194 198 203 203 199 193 196 192 194 197 198 199 192 195 194 195 195 192 201 197 197 211 200 210 216 214 215 206 206 207 211 205 199 189 200 197 197 199 194 196 203 206 223 213 215 205 227 225 208 153 148 161 143 173
197 199 204 209 209 208 203 200 198 196 200 203 204 200 195 194 191 193 196 197 194 188 191 194 191 195 196 202 201 201 213 206 209 215 210 209 205 202 205 206 205 189 181 200 195 201 196 189 196 201 205 205 215 212 201 220 225 228 159 152 168 198 187
197 198 203 207 210 206 202 198 197 195 201 206 200 200 198 197 195 197 197 198 195 188 189 191 189 191 202 204 203 204 200 189 196 205 209 206 208 202 202 201 202 182 185 192 190 193 186 186 198 194 198 197 207 202 213 199 210 37 120 162 202 210 176
196 198 202 206 208 206 204 198 194 194 200 204 199 199 200 199 198 198 197 196 197 190 188 188 187 193 205 205 205 202 194 191 194 202 208 207 209 204 199 201 196 183 185 189 186 189 178 187 190 189 186 191 189 184 177 167 149 147 175 201 180 219 161
195 198 201 205 209 206 204 203 196 193 201 203 201 200 203 198 199 198 198 199 200 195 191 188 187 198 205 202 201 200 192 193 193 208 206 207 205 202 199 199 196 186 188 189 184 183 180 179 191 180 188 194 181 149 147 152 170 185 217 209 183 187 162
192 197 200 203 205 204 201 200 198 198 199 199 199 200 202 200 197 200 199 201 202 198 195 192 194 195 204 201 198 191 186 189 204 213 208 204 203 199 200 199 195 189 190 189 181 182 174 176 183 180 184 190 154 160 165 183 196 194 204 201 185 190 189
193 195 196 201 203 201 202 201 202 200 194 196 199 202 202 200 193 199 202 202 201 197 190 188 196 198 202 195 188 181 179 182 194 196 203 202 200 197 198 199 195 190 191 188 181 179 170 174 173 177 175 162 163 169 184 190 197 191 199 201 193 194 206
193 192 194 200 203 203 201 200 196 193 191 198 201 205 203 197 193 200 203 201 200 200 194 191 195 198 196 183 177 175 177 182 188 195 198 199 198 197 196 198 194 190 190 183 176 171 169 170 174 173 166 173 174 182 193 192 191 195 199 196 201 204 197
190 190 191 199 202 202 199 197 197 193 189 196 203 206 203 195 195 198 201 198 197 197 195 197 180 175 174 173 171 172 173 179 198 206 197 197 197 197 195 195 192 179 146 128 116 111 114 93 52 52 169 177 178 183 194 195 193 202 200 198 211 201 203
190 190 193 199 201 201 197 191 192 197 191 194 203 204 203 195 193 197 201 199 196 194 189 181 152 158 163 164 167 169 172 178 204 204 197 197 195 194 193 192 166 123 130 126 122 121 120 106 93 65 55 59 46 169 199 194 203 204 201 207 206 203 206
190 191 192 195 200 198 192 192 193 190 189 194 200 203 202 197 191 194 203 198 193 184 184 139 152 152 159 164 166 167 169 177 191 199 197 197 195 193 193 189 168 163 161 164 150 139 133 119 102 84 81 75 74 57 46 44 214 199 206 211 205 198 213
189 190 190 192 195 197 193 189 194 193 189 188 196 203 200 198 193 196 200 197 189 179 171 150 153 158 160 165 162 163 170 176 184 193 196 197 196 193 192 187 175 177 175 156 162 169 167 141 91 90 96 118 95 72 48 43 34 12 220 213 220 205 219
191 190 189 191 193 193 191 195 192 193 188 183 197 203 201 196 196 194 200 200 189 176 164 159 159 163 163 164 164 169 171 175 183 193 195 198 196 195 190 187 174 176 170 168 178 174 172 168 165 159 173 194 187 126 106 83 11 17 13 349 272 236 194
191 189 188 189 190 192 192 195 191 184 176 186 196 200 196 192 194 196 199 200 187 179 159 162 163 166 165 165 169 176 176 175 186 196 197 197 197 193 188 187 179 178 173 175 182 176 171 169 168 171 180 183 196 193 193 196 187 188 196 232 293 277 221
192 188 187 188 190 193 194 191 190 187 178 189 197 198 187 192 198 197 196 197 185 179 153 165 165 166 166 167 169 175 185 196 196 196 194 194 194 193 188 187 182 181 176 180 171 169 172 165 167 170 173 175 188 189 197 152 136 85 49 23 37 41 45
190 189 187 188 189 192 192 193 191 179 174 182 192 188 184 192 198 191 193 202 189 176 155 171 165 166 167 166 165 176 180 184 183 193 189 191 195 192 190 187 186 185 174 182 155 167 166 159 168 170 163 178 188 190 191 137 92 107 105 96 94 84 85
190 188 187 189 189 191 192 192 191 181 182 185 182 181 184 195 197 192 195 203 196 176 157 169 167 167 166 168 169 171 182 191 183 184 187 189 192 191 192 185 189 189 180 172 151 163 159 165 170 166 174 179 184 193 189 163 164 149 107 123 128 135 134
192 189 190 188 185 191 190 190 182 173 183 182 179 181 187 195 197 191 200 206 194 174 150 166 169 166 168 170 171 170 174 178 181 182 183 185 190 192 187 176 192 197 188 145 155 157 164 170 170 168 181 184 186 191 189 170 174 179 187 206 216 205 206
194 190 189 189 188 191 185 176 157 172 185 190 180 178 191 194 193 199 200 203 191 179 150 159 172 167 170 172 174 170 172 177 181 180 182 180 185 193 185 180 183 169 133 147 156 158 166 174 181 175 182 189 190 190 184 182 179 180 181 194 203 205 220
206 198 194 188 183 185 180 167 171 178 182 184 177 184 188 195 199 201 196 196 188 188 160 157 170 171 171 174 178 174 171 178 178 177 183 178 186 186 180 181 179 130 150 150 156 161 165 184 212 187 187 196 199 175 166 186 168 161 187 187 202 204 205
202 201 192 182 168 165 158 169 179 182 186 185 167 178 183 193 197 198 196 194 188 191 158 160 160 178 174 176 181 178 168 177 177 176 179 183 180 178 187 177 162 140 142 153 160 164 168 180 200 234 178 106 102 123 168 193 175 180 203 198 201 207 209
191 193 174 171 166 160 169 179 183 184 185 182 168 165 175 187 194 193 195 185 187 193 171 158 157 170 179 180 184 182 174 170 164 164 178 176 178 180 179 160 132 144 151 164 162 167 169 180 193 146 112 125 110 111 173 204 181 182 198 209 208 214 216
182 173 156 154 163 162 174 182 185 182 180 174 165 168 178 186 182 173 183 186 183 186 147 154 162 167 175 185 191 185 175 160 155 171 167 170 179 177 170 171 150 155 155 161 164 165 175 179 183 135 134 124 137 150 190 208 193 198 201 210 214 222 226